Weather History for Philip, SD

Change the Weather History Date:

Saturday, December 7, 2013

  Actual Average Record
Temperature  
Mean Temperature -10 °F 25 °F  
Max Temperature -4 °F 37 °F 58 °F (1965)
Min Temperature -16 °F 12 °F -17 °F (2006)
Degree Days  
Heating Degree Days 75 40  
Month to date heating degree days 371 275  
Since 1 July heating degree days 1882 1910  
Cooling Degree Days 0 0  
Month to date cooling degree days 0 0  
Year to date cooling degree days 945 818  
Moisture  
Dew Point -15 °F    
Average Humidity 76    
Maximum Humidity 83    
Minimum Humidity 68    
Precipitation  
Precipitation 0.01 in 0.01 in 0.33 in (1971)
Month to date precipitation 0.36 0.11  
Year to date precipitation 15.63 17.03  
Sea Level Pressure  
Sea Level Pressure 30.59 in    
Wind  
Wind Speed 6 mph (East)    
Max Wind Speed 13 mph    
Max Gust Speed 15 mph    
Visibility 7 miles    
Events Snow    
T = Trace of Precipitation, MM = Missing Value Source: NWS Daily Summary

Daily Weather History Graph

Daily Weather History Graph

Search for Another Location

Airport:

Trip Planner

Search our weather history database for the weather conditions in past years. The results will help you decide how hot, cold, wet, or windy it might be!

Date:

Astronomy

Dec. 07, 2013 Rise Set
Actual Time 7:07 AM MST 4:08 PM MST
Civil Twilight 6:35 AM MST 4:40 PM MST
Nautical Twilight 5:58 AM MST 5:17 PM MST
Astronomical Twilight 5:23 AM MST 5:52 PM MST
Moon 10:46 AM MST (12/7) 10:00 PM MST (12/7)
Length of Visible Light 10h 05m
Length of Day
9h 00m
Waxing Crescent, 30% of the Moon is Illuminated
Dec 7
Waxing Crescent
Dec 9
First Quarter
Dec 17
Full
Dec 25
Last Quarter
Jan 1
New

Hourly Weather History & Observations

Time (MST) Temp. Windchill Dew Point Humidity Pressure Visibility Wind Dir Wind Speed Gust Speed Precip Events Conditions
12:55 AM -15.0 °F -25.0 °F -20.9 °F 75% 30.78 in 7.0 mi WNW 3.5 mph - 0.00 in Snow Light Snow
1:55 AM -13.0 °F - -18.9 °F 75% 30.76 in 10.0 mi Calm Calm - N/A   Overcast
2:55 AM -14.1 °F - -18.9 °F 79% 30.76 in 8.0 mi Calm Calm - N/A   Mostly Cloudy
3:55 AM -15.0 °F - -20.0 °F 78% 30.76 in 10.0 mi Calm Calm - N/A   Overcast
4:55 AM -13.0 °F - -18.0 °F 78% 30.76 in 10.0 mi Calm Calm - N/A   Overcast
5:55 AM -13.0 °F - -18.0 °F 78% 30.76 in 7.0 mi Calm Calm - 0.00 in Snow Light Snow
6:43 AM -11.2 °F - -18.4 °F 70% 30.54 in 2.0 mi Calm Calm - 0.00 in Snow Light Snow
6:55 AM -11.9 °F - -17.0 °F 78% 30.75 in 4.0 mi Calm Calm - 0.00 in Snow Light Snow
7:07 AM -11.2 °F - -18.4 °F 70% 30.53 in 3.0 mi Calm Calm - 0.00 in Snow Light Snow
7:14 AM -11.2 °F - -18.4 °F 70% 30.53 in 2.0 mi Calm Calm - 0.00 in Snow Light Snow
7:35 AM -11.2 °F - -18.4 °F 70% 30.53 in 2.5 mi Calm Calm - 0.00 in Snow Light Snow
7:48 AM -11.2 °F - -18.4 °F 70% 30.53 in 5.0 mi Calm Calm - 0.01 in Snow Light Snow
7:55 AM -13.0 °F -22.7 °F -18.0 °F 78% 30.74 in 8.0 mi ENE 3.5 mph - 0.01 in   Overcast
8:22 AM -11.2 °F -20.6 °F -16.6 °F 77% 30.53 in 2.0 mi ESE 3.5 mph - 0.00 in Snow Light Snow
8:37 AM -11.2 °F -20.6 °F -18.4 °F 70% 30.53 in 4.0 mi ESE 3.5 mph - 0.00 in Snow Light Snow
8:55 AM -11.9 °F -21.5 °F -17.0 °F 78% 30.76 in 9.0 mi East 3.5 mph - 0.00 in   Overcast
9:55 AM -9.9 °F -24.9 °F -16.1 °F 74% 30.75 in 10.0 mi ENE 6.9 mph - N/A   Overcast
10:55 AM -9.0 °F -25.2 °F -15.0 °F 75% 30.70 in 3.0 mi ENE 8.1 mph - 0.00 in Snow Light Snow
11:55 AM -7.1 °F -22.8 °F -15.0 °F 68% 30.66 in 7.0 mi East 8.1 mph - 0.00 in   Overcast
12:55 PM -6.0 °F -23.6 °F -13.0 °F 72% 30.61 in 6.0 mi East 10.4 mph - 0.00 in   Overcast
1:55 PM -6.0 °F -22.6 °F -13.0 °F 72% 30.57 in 7.0 mi East 9.2 mph - 0.00 in   Overcast
2:55 PM -6.0 °F -22.6 °F -13.0 °F 72% 30.55 in 7.0 mi East 9.2 mph - 0.00 in   Overcast
3:55 PM -6.0 °F -24.6 °F -11.9 °F 75% 30.53 in 10.0 mi East 11.5 mph - 0.00 in   Overcast
4:55 PM -6.0 °F -23.6 °F -11.0 °F 79% 30.51 in 10.0 mi ENE 10.4 mph - N/A   Overcast
5:55 PM -7.1 °F -21.4 °F -11.9 °F 79% 30.49 in 10.0 mi ENE 6.9 mph - N/A   Partly Cloudy
6:55 PM -4.0 °F -22.1 °F -9.9 °F 76% 30.46 in 10.0 mi East 11.5 mph - N/A   Overcast
7:55 PM -5.1 °F -20.4 °F -9.9 °F 80% 30.44 in 6.0 mi East 8.1 mph - 0.00 in Snow Light Snow
8:55 PM -5.1 °F -20.4 °F -11.0 °F 76% 30.42 in 8.0 mi East 8.1 mph - 0.00 in Snow Light Snow
9:55 PM -5.1 °F -22.5 °F -9.9 °F 80% 30.39 in 9.0 mi East 10.4 mph - 0.00 in   Overcast
10:55 PM -4.0 °F -19.0 °F -9.0 °F 79% 30.36 in 10.0 mi East 8.1 mph - 0.00 in   Overcast
11:55 PM -4.0 °F -19.0 °F -9.0 °F 79% 30.32 in 5.0 mi East 8.1 mph - 0.00 in   Overcast